ARIANE 1 DEB

Satellite information

Favourite Embed

Satellite Type and Status

DEBRISIN ORBIT

Key statistics

Satellite ARIANE 1 DEB at a glance.

Uptime

14489

Days in orbit

Revolutions

≈ 14.3

Per day

Orbit

SSO

Sun Synchronous Orbit

Inclination

98.3

Latest

Satellite identification and parameters

Extended collection of information and parameters for ARIANE 1 DEB.

Object identification

Identified? True

Debris? True

Object name: ARIANE 1 DEB

International designator: 1986-019D

Object number (NORAD): 16616

Object ID (CCSDS): 16616

Country: FRANCE (FR)

Current information (Y/N): Y

RCS size: MEDIUM

Orbital parameters

Period: 100.624 minutes

Inclination: 98.2642 deg

SMA: 7166.296 km

Apoapsis: 793.123 km

Periapsis: 783.198 km

RAAN: 299.3745 deg

Eccentricy: 0.00069253

Argument of periapsis: 203.828 deg

Mean anomaly: 218.0063 deg

Mean motion: 14.31069356 rev/day

Mean motion (dot): 0.00000624 rev/day2

B* drag term: 0.00025241416 1/REarth

Two-line elements (TLE)

Creation date: Oct. 24, 2025, 2:48 a.m.

Reference frame: TEME

Reference center: EARTH

Epoch: Oct. 23, 2025, 11:16 p.m. UTC

TLE line 0: 0 ARIANE 1 DEB

TLE line 1: 1 16616U 86019D 25296.96979652 .00000624 00000-0 25241-3 0 9990

TLE line 2: 2 16616 98.2642 299.3745 0006925 203.8280 218.0063 14.31069356 64454

Live tracking on map

Real-time ground track for satellite ARIANE 1 DEB.

In-orbit conjunctions

A list of the most updated potential collisions computed for object ARIANE 1 DEB.

Target Orbit TCA Probability of collision Miss distance Type
FENGYUN 1C DEB SSO 2024-09-26 05:54:33 0.0002816047 592.0 (m) DEBRIS
FENGYUN 1C DEB SSO 2024-09-24 07:00:27 0.001644923 36.0 (m) DEBRIS

Associated space launch

SPOT 1 is a French Earth observation satellite. Viking is Sweden's first satellite.

ARIANE 1 DEB was lifted into orbit during the mission ‘Ariane 1 | SPOT 1 & Viking’, on board a Ariane 1 space rocket.

The launch took place on Feb. 22, 1986, 1:44 a.m. from Ariane Launch Area 1 (ELV).

For more information about the launch, click the button.

Launch to space Ariane 1 | SPOT 1 & Viking
Ariane 1 | SPOT 1 & Viking

Agency: N/A

Status: Launch Successful

Launch date: Feb. 22, 1986, 1:44 a.m. UTC

Rocket: Ariane 1

Launch pad: Ariane Launch Area 1 (ELV)

Location: Guiana Space Centre, French Guiana

...

Latest news about this satellite

There are no fresh news available about this satellite. Check back as we update our databases every day.


Newsletter sign-up

Weekly statistics, charts and insights to help you stay on top of the space industry.